Location: Newark
(51.2625°N, 13.3939°E)
Time: 08:43:49
(UTC+00:00)

Transit 2A Rocket - Pass Details

Date: 17 January 2021
Orbit: 594 x 909 km, 66.7° (Epoch: 24 February)

Event Time Altitude Azimuth Distance (km) Brightness Sun altitude
Rises 17:42:38 0° 309° (NW) 3,116 8.8 -19.9°
Reaches altitude 10° 17:46:29 10° 338° (NNW) 2,119 7.5 -20.5°
Maximum altitude 17:48:33 13° 4° (N) 1,911 6.9 -20.8°
Enters shadow 17:49:02 12° 10° (N) 1,912 6.9 -20.9°
